Temp
43 44 44 43 44 44 45 45 43 43 44 44 44 44 44 44 43 43 42 42 42 42 43 43 43 42 41 40 40 40 40 40 40 40 40 41 41 41 41 40 40 40 40 40 40 40 40 40 40 40 40 39 38 37 37 38 37 37 37 36 36 35 35 34 34 34 34 34 34
42 42 42 43 43 44 45 44 44 43 44 44 44 43 43 43 42 41 40 40 41 41 41 42 40 39 39 38 38 38 39 39 39 39 40 40 41 41 40 40 40 40 39 39 40 40 40 39 39 39 40 39 38 36 35 36 36 36 35 35 34 34 34 33 33 33 34 34 33
41 42 42 43 43 44 44 44 43 42 41 42 42 42 42 42 41 41 40 39 39 39 39 40 39 38 37 37 38 38 38 39 39 39 39 39 39 39 39 39 40 40 40 39 39 40 40 39 39 39 39 39 37 37 36 35 35 34 34 34 34 34 34 34 33 33 34 34 33
40 40 41 41 40 40 41 43 41 40 40 41 40 40 40 41 40 40 39 37 37 38 38 38 38 37 37 36 37 37 38 38 38 38 38 38 38 38 38 38 39 39 39 39 40 40 39 38 38 38 38 37 36 35 35 36 34 34 34 35 35 35 34 35 34 34 34 33 32
39 40 40 40 39 39 39 39 38 39 39 40 40 40 40 40 39 38 37 37 37 37 37 36 36 36 36 36 36 37 37 37 37 37 38 38 38 38 38 38 38 38 37 37 38 38 38 38 38 38 38 36 36 35 35 34 33 34 34 36 35 35 34 34 34 34 33 32 31
39 38 38 38 38 38 38 38 38 38 38 38 38 37 38 39 38 37 37 36 36 35 35 34 35 35 35 36 36 36 36 36 36 36 36 36 37 37 38 38 38 38 37 37 36 37 37 36 37 38 37 36 35 34 33 33 33 33 33 34 34 33 33 33 33 33 32 31 30
39 38 38 38 37 38 38 37 37 37 37 37 36 36 36 36 35 35 34 34 34 34 34 34 35 35 35 35 35 35 36 36 36 35 35 35 35 36 36 37 37 37 37 37 37 36 36 35 36 36 36 36 36 34 33 32 32 32 32 32 32 32 31 30 30 30 30 28 28
38 38 38 38 38 37 37 36 36 36 36 37 36 35 35 34 34 34 34 33 34 34 34 34 34 34 34 34 35 35 35 35 35 35 35 35 35 35 36 36 36 36 36 37 36 36 35 35 36 35 35 35 35 33 31 30 30 30 30 30 31 30 28 27 26 27 27 27 28
38 37 37 37 37 36 36 36 35 35 36 35 35 35 34 34 33 33 33 34 34 33 33 34 34 34 34 34 34 34 34 35 35 35 35 35 35 36 35 35 35 35 35 35 35 35 34 35 35 35 35 35 34 32 30 29 29 28 28 29 29 29 28 27 27 26 26 27 28
37 37 36 36 36 35 35 35 35 35 35 35 34 34 33 33 33 33 33 34 33 33 33 34 34 34 34 34 34 34 34 35 35 35 35 35 35 35 35 35 35 34 34 34 34 34 34 34 34 34 33 33 32 31 30 29 28 27 27 28 28 28 27 27 27 27 27 26 27
36 36 36 36 36 35 35 35 35 34 34 34 34 33 33 32 32 33 33 33 32 33 33 34 34 34 34 35 35 35 35 35 35 34 34 34 34 35 35 35 35 34 34 34 33 33 33 33 33 33 32 31 31 30 30 29 28 27 27 26 26 27 27 27 27 26 26 25 25
35 35 35 35 34 34 34 35 35 35 34 34 34 33 33 33 33 32 32 32 33 33 34 34 34 34 34 34 35 35 35 35 35 34 34 34 34 34 35 35 35 34 34 34 33 33 32 32 32 31 31 30 29 29 29 29 28 27 27 27 25 25 25 25 25 24 23 23 24
34 34 34 34 34 33 34 34 34 34 34 34 33 33 33 33 33 32 32 32 33 33 34 34 34 34 34 34 34 35 35 35 34 34 34 34 34 34 34 34 34 34 34 34 33 32 31 31 31 31 30 30 29 28 28 28 27 27 27 26 25 24 24 24 23 23 22 22 23
33 34 34 33 33 33 33 33 34 34 34 33 33 33 33 33 32 32 32 32 33 33 33 33 34 34 34 34 34 34 34 34 34 33 33 33 34 34 34 34 34 33 33 32 32 31 31 31 30 30 30 29 28 28 28 27 27 26 26 25 25 24 24 24 23 22 22 22 22
33 33 33 32 32 32 33 33 34 34 34 33 33 33 32 32 32 32 31 32 32 32 32 32 33 33 34 34 34 33 33 32 32 32 32 33 33 33 33 33 33 32 32 31 31 30 30 30 29 29 29 29 29 28 28 27 27 26 26 25 25 24 24 23 22 22 22 22 21
33 32 32 32 32 32 33 33 34 34 34 34 33 32 32 32 32 32 32 32 32 32 32 32 32 33 33 33 33 33 32 32 31 31 31 32 32 32 32 32 32 31 31 31 30 30 29 29 29 29 29 29 29 29 28 28 27 26 26 25 24 24 23 23 22 21 21 21 20
32 32 32 32 32 33 33 33 33 33 33 33 32 32 32 32 32 32 32 32 32 31 32 32 32 32 32 32 32 32 31 31 31 31 31 31 31 31 31 31 32 31 31 30 30 30 29 29 29 29 29 29 29 29 29 28 27 26 25 24 23 23 22 23 22 21 21 20 20
32 31 31 32 32 32 33 32 32 32 32 32 32 32 32 31 31 32 32 32 32 31 31 31 31 31 31 31 31 30 30 30 30 30 31 31 31 31 31 31 31 31 30 29 29 29 29 29 29 29 28 28 28 28 27 27 26 25 24 23 22 22 22 22 21 21 20 20 20
31 31 31 32 32 32 32 32 32 32 32 32 32 31 31 31 31 31 31 31 31 31 31 30 30 30 30 30 30 30 30 29 29 30 31 31 31 31 31 31 30 29 28 28 28 28 28 29 29 28 27 27 26 26 25 24 24 23 23 22 22 22 22 21 20 20 19 19 20
31 31 32 32 32 32 32 32 32 32 32 32 31 30 30 30 30 30 30 31 31 30 30 29 29 29 29 29 29 29 29 29 29 30 30 30 30 30 29 28 27 27 27 27 27 27 27 27 27 26 26 25 25 24 23 23 22 22 22 22 22 22 22 22 21 19 19 18 18
31 31 31 32 32 32 32 32 32 32 31 30 30 30 30 29 29 30 30 30 29 29 28 28 28 28 28 28 28 28 28 29 29 29 29 28 28 27 27 25 25 25 25 25 26 25 25 24 24 24 24 24 23 23 23 22 21 21 21 22 22 22 22 22 20 19 18 18 18
31 31 31 31 31 31 31 32 31 30 30 29 29 29 29 29 29 29 29 29 28 28 28 28 28 27 27 27 27 27 28 29 29 28 27 26 26 25 24 24 23 23 24 24 24 23 23 23 23 22 22 22 22 22 22 22 21 21 21 21 21 21 20 19 18 18 18 18 19
30 30 30 30 31 31 31 30 30 29 29 29 29 29 28 28 28 28 28 28 27 27 28 28 27 27 27 27 27 27 26 27 27 27 26 25 24 23 22 22 22 22 23 23 23 22 22 22 22 22 21 21 21 21 22 22 22 21 21 21 20 20 19 17 18 18 19 19 20
30 29 29 30 30 30 30 30 29 29 29 29 28 28 28 27 27 27 27 27 27 27 27 27 27 27 27 27 27 26 25 25 25 25 25 24 23 22 21 21 21 21 22 23 24 25 25 24 23 22 22 21 21 21 21 22 21 21 21 21 20 20 19 19 19 20 20 20 20
29 29 29 29 30 30 29 29 29 28 28 28 28 27 27 27 27 26 26 27 27 27 27 27 27 27 27 26 26 26 25 24 24 24 24 23 22 21 21 20 21 21 23 25 30 34 34 32 29 26 23 22 22 21 21 21 21 21 20 20 20 20 20 22 22 22 21 20 19
28 28 29 29 29 29 29 28 28 28 27 27 27 26 26 26 26 26 26 26 27 27 27 27 27 27 26 25 25 25 24 24 24 23 23 22 22 22 21 21 21 23 25 29 34 36 37 38 37 32 27 23 22 22 22 22 22 21 20 20 19 20 22 23 23 22 21 21 19
27 28 28 29 29 29 28 28 27 27 27 27 26 26 26 26 26 26 26 26 27 27 27 27 27 27 26 24 24 24 24 24 23 23 22 22 21 21 21 21 22 23 27 32 35 37 37 38 38 36 32 25 23 23 22 22 21 20 20 19 19 20 21 22 22 22 22 22 21
27 28 28 28 28 28 28 27 27 27 27 27 26 26 27 26 26 26 26 27 26 27 27 27 27 26 26 25 25 25 24 24 23 22 22 21 20 20 20 21 21 23 28 33 36 37 38 38 38 38 35 29 24 22 22 22 21 20 19 18 18 18 19 19 20 20 21 21 22
27 27 27 28 28 28 28 27 27 27 27 26 26 27 27 27 27 27 27 27 27 28 28 28 27 26 26 26 25 25 24 23 22 21 21 20 20 20 20 20 21 24 29 34 36 37 38 38 38 37 37 35 27 23 20 20 20 19 19 18 18 17 18 19 20 20 20 20 20
27 27 27 27 28 28 28 27 27 27 27 26 26 27 27 27 27 27 27 27 28 29 29 28 27 27 27 26 25 25 24 23 22 21 20 20 21 20 21 22 21 24 28 33 35 37 38 38 37 37 36 35 29 23 20 18 18 18 18 17 17 18 19 19 19 20 20 20 20
26 26 26 26 27 27 27 27 27 27 27 26 26 27 27 28 28 28 28 28 29 29 28 28 27 27 27 26 25 25 25 24 23 22 21 20 21 21 21 20 21 23 28 33 35 37 37 37 37 36 35 33 28 22 18 17 16 16 16 16 17 17 18 19 19 19 20 20 20
26 26 25 26 26 27 27 27 27 26 26 26 27 27 28 28 28 28 28 29 29 29 29 28 28 28 27 26 26 26 26 25 24 23 22 21 20 20 20 20 20 23 27 33 35 36 37 37 36 35 34 32 26 21 17 15 15 15 15 15 16 16 17 19 19 19 19 20 20
26 25 25 25 26 26 27 27 27 26 26 26 27 28 28 28 28 28 28 28 29 29 29 29 28 28 28 27 28 28 27 27 25 24 22 21 20 20 20 21 20 23 28 33 35 36 37 36 36 34 33 30 24 19 15 14 13 14 14 15 16 16 17 18 19 19 20 20 19
26 25 25 25 26 26 26 26 26 25 25 26 27 28 27 27 27 28 28 29 29 29 28 28 28 27 27 27 28 28 28 27 25 23 21 20 19 20 20 20 20 24 29 33 35 36 37 36 35 33 31 28 22 17 14 14 14 14 15 16 16 17 17 18 19 19 19 19 19
26 26 26 26 26 26 26 25 25 25 25 26 27 27 27 27 28 28 28 29 28 28 27 26 26 26 26 26 26 26 26 25 24 23 21 20 20 20 20 20 20 24 30 33 35 36 36 36 34 33 30 25 19 16 14 14 15 15 16 16 17 18 18 18 19 18 18 18 18
26 26 26 26 26 26 25 25 24 25 26 26 27 27 27 28 28 28 29 28 27 27 26 25 25 26 27 27 26 25 24 24 23 23 22 21 21 20 20 20 20 23 29 32 34 36 36 36 34 32 28 22 18 15 14 14 15 15 16 16 17 17 18 18 19 18 18 18 18
26 26 26 26 26 26 25 25 25 25 26 26 27 27 28 28 28 28 28 27 26 26 26 26 26 27 28 28 27 25 24 24 23 23 22 22 22 21 19 19 18 21 25 30 33 35 36 36 34 31 26 20 16 15 14 14 15 15 15 16 16 17 17 18 18 18 18 18 18
26 26 26 26 26 26 25 25 25 26 26 27 27 28 28 27 28 28 27 27 26 26 26 27 28 28 28 27 26 25 24 24 24 23 22 22 21 20 19 19 18 20 23 29 32 34 35 36 34 31 26 18 15 14 14 15 15 15 15 16 16 16 16 17 17 17 17 17 21
26 25 25 26 26 26 26 26 26 26 27 27 27 27 27 27 27 28 28 26 26 26 27 27 28 28 27 25 24 24 25 24 23 22 22 21 20 20 20 19 18 19 22 28 32 34 35 35 35 33 28 19 15 14 14 14 15 15 15 15 16 16 16 17 17 17 17 17 23
26 25 25 26 26 26 26 26 26 27 27 27 27 27 27 27 27 28 28 26 26 26 26 27 27 26 25 24 24 24 24 24 22 21 20 20 20 22 23 19 17 18 20 26 31 33 34 34 34 34 30 19 15 14 14 14 14 15 15 16 17 18 18 18 17 18 18 17 22
26 25 25 26 26 26 26 26 26 27 27 27 27 27 26 26 26 26 26 26 26 26 27 26 26 25 24 23 22 21 22 23 22 21 20 20 19 21 21 17 16 16 18 23 29 32 33 33 33 33 31 24 17 14 14 15 15 15 16 17 18 20 21 20 19 19 19 19 20
MSLP
1025.79 1025.71 1025.67 1025.67 1025.67 1025.67 1025.67 1025.67 1025.63 1025.59 1025.55 1025.51 1025.47 1025.43 1025.39 1025.31 1025.27 1025.19 1025.11 1025.07 1024.99 1024.87 1024.79 1024.67 1024.63 1024.59 1024.55 1024.47 1024.39 1024.27 1024.15 1024.11 1023.99 1023.91 1023.83 1023.75 1023.67 1023.63 1023.59 1023.51 1023.47 1023.43 1023.39 1023.35 1023.31 1023.31 1023.31 1023.31 1023.35 1023.39 1023.39 1023.43 1023.43 1023.43 1023.39 1023.31 1023.27 1023.27 1023.27 1023.27 1023.31 1023.31 1023.31 1023.27 1023.19 1023.11 1022.99 1022.95 1022.87
1025.87 1025.83 1025.79 1025.75 1025.71 1025.67 1025.67 1025.67 1025.67 1025.67 1025.59 1025.55 1025.55 1025.47 1025.39 1025.35 1025.27 1025.27 1025.19 1025.11 1025.03 1024.95 1024.83 1024.79 1024.79 1024.75 1024.67 1024.59 1024.55 1024.43 1024.35 1024.27 1024.15 1024.11 1024.03 1023.95 1023.87 1023.83 1023.75 1023.67 1023.67 1023.59 1023.55 1023.43 1023.39 1023.39 1023.35 1023.35 1023.35 1023.39 1023.39 1023.35 1023.39 1023.39 1023.35 1023.27 1023.27 1023.27 1023.31 1023.35 1023.35 1023.35 1023.35 1023.27 1023.23 1023.11 1022.99 1022.95 1022.87
1025.99 1025.91 1025.83 1025.83 1025.79 1025.75 1025.75 1025.83 1025.79 1025.75 1025.71 1025.63 1025.55 1025.47 1025.39 1025.35 1025.31 1025.27 1025.23 1025.15 1025.11 1025.03 1024.99 1024.95 1024.95 1024.87 1024.83 1024.75 1024.63 1024.55 1024.43 1024.35 1024.27 1024.19 1024.11 1024.07 1023.99 1023.99 1023.91 1023.87 1023.83 1023.79 1023.71 1023.67 1023.63 1023.55 1023.51 1023.47 1023.47 1023.43 1023.43 1023.39 1023.39 1023.35 1023.31 1023.27 1023.27 1023.27 1023.27 1023.31 1023.31 1023.35 1023.35 1023.27 1023.19 1023.11 1022.99 1022.91 1022.87
1026.07 1025.99 1025.99 1025.99 1025.99 1025.95 1025.95 1025.91 1025.87 1025.83 1025.79 1025.67 1025.59 1025.51 1025.43 1025.39 1025.35 1025.35 1025.31 1025.27 1025.23 1025.15 1025.11 1025.11 1025.07 1024.99 1024.91 1024.83 1024.67 1024.59 1024.51 1024.39 1024.31 1024.27 1024.19 1024.11 1024.11 1024.03 1023.99 1023.95 1023.91 1023.87 1023.83 1023.79 1023.75 1023.67 1023.67 1023.63 1023.59 1023.55 1023.55 1023.51 1023.47 1023.39 1023.31 1023.27 1023.23 1023.23 1023.23 1023.23 1023.27 1023.27 1023.27 1023.23 1023.15 1023.07 1022.99 1022.95 1022.91
1026.15 1026.11 1026.11 1026.07 1026.07 1026.07 1026.03 1025.99 1025.95 1025.91 1025.83 1025.71 1025.67 1025.59 1025.51 1025.43 1025.39 1025.39 1025.39 1025.35 1025.31 1025.27 1025.27 1025.23 1025.11 1025.03 1024.95 1024.83 1024.75 1024.67 1024.55 1024.43 1024.39 1024.31 1024.27 1024.19 1024.11 1024.07 1023.99 1023.95 1023.91 1023.91 1023.87 1023.83 1023.83 1023.75 1023.67 1023.67 1023.67 1023.63 1023.55 1023.55 1023.55 1023.47 1023.39 1023.35 1023.31 1023.27 1023.27 1023.19 1023.19 1023.19 1023.19 1023.15 1023.11 1023.07 1023.03 1022.99 1022.91
1026.27 1026.27 1026.19 1026.11 1026.11 1026.11 1026.03 1025.99 1025.99 1025.95 1025.83 1025.79 1025.75 1025.67 1025.63 1025.55 1025.55 1025.51 1025.51 1025.47 1025.43 1025.39 1025.35 1025.27 1025.15 1025.07 1024.99 1024.87 1024.83 1024.71 1024.63 1024.51 1024.43 1024.39 1024.35 1024.27 1024.15 1024.11 1023.99 1023.95 1023.91 1023.87 1023.83 1023.79 1023.75 1023.71 1023.67 1023.67 1023.67 1023.63 1023.55 1023.55 1023.55 1023.55 1023.51 1023.47 1023.43 1023.39 1023.35 1023.27 1023.27 1023.23 1023.19 1023.11 1023.11 1023.07 1023.03 1022.99 1022.95
1026.39 1026.35 1026.31 1026.27 1026.23 1026.15 1026.11 1026.03 1025.99 1025.95 1025.91 1025.83 1025.83 1025.83 1025.75 1025.67 1025.63 1025.63 1025.59 1025.55 1025.47 1025.39 1025.31 1025.27 1025.15 1025.11 1025.03 1024.95 1024.87 1024.79 1024.67 1024.59 1024.47 1024.39 1024.39 1024.27 1024.23 1024.11 1024.03 1023.99 1023.91 1023.83 1023.79 1023.71 1023.67 1023.67 1023.63 1023.63 1023.63 1023.59 1023.55 1023.55 1023.55 1023.55 1023.55 1023.55 1023.55 1023.51 1023.47 1023.39 1023.31 1023.27 1023.23 1023.23 1023.15 1023.11 1023.07 1023.03 1022.99
1026.39 1026.39 1026.35 1026.31 1026.27 1026.23 1026.19 1026.11 1026.07 1025.99 1025.99 1025.91 1025.91 1025.83 1025.79 1025.71 1025.67 1025.67 1025.63 1025.55 1025.51 1025.39 1025.31 1025.27 1025.23 1025.15 1025.07 1024.99 1024.95 1024.83 1024.75 1024.67 1024.55 1024.47 1024.39 1024.31 1024.27 1024.15 1024.07 1023.99 1023.87 1023.83 1023.71 1023.67 1023.63 1023.63 1023.59 1023.55 1023.55 1023.55 1023.55 1023.51 1023.55 1023.55 1023.55 1023.63 1023.67 1023.63 1023.55 1023.47 1023.39 1023.31 1023.27 1023.27 1023.23 1023.15 1023.11 1023.07 1022.99
1026.47 1026.43 1026.39 1026.35 1026.31 1026.27 1026.23 1026.15 1026.11 1026.07 1026.03 1025.99 1025.91 1025.83 1025.83 1025.75 1025.71 1025.67 1025.63 1025.55 1025.47 1025.39 1025.31 1025.27 1025.23 1025.11 1025.07 1024.99 1024.99 1024.87 1024.75 1024.67 1024.59 1024.51 1024.39 1024.31 1024.23 1024.15 1024.07 1023.95 1023.87 1023.79 1023.67 1023.59 1023.55 1023.55 1023.55 1023.55 1023.55 1023.55 1023.51 1023.47 1023.47 1023.55 1023.59 1023.63 1023.67 1023.67 1023.63 1023.55 1023.43 1023.35 1023.27 1023.23 1023.19 1023.19 1023.15 1023.07 1022.99
1026.59 1026.55 1026.47 1026.39 1026.35 1026.27 1026.27 1026.19 1026.15 1026.11 1026.07 1025.99 1025.91 1025.83 1025.83 1025.75 1025.71 1025.67 1025.59 1025.55 1025.47 1025.39 1025.31 1025.27 1025.19 1025.11 1025.11 1024.99 1024.95 1024.83 1024.75 1024.67 1024.59 1024.51 1024.39 1024.31 1024.23 1024.11 1024.03 1023.95 1023.83 1023.79 1023.67 1023.59 1023.55 1023.55 1023.55 1023.55 1023.51 1023.47 1023.43 1023.39 1023.47 1023.51 1023.55 1023.59 1023.67 1023.67 1023.63 1023.55 1023.47 1023.39 1023.31 1023.23 1023.19 1023.19 1023.15 1023.07 1023.03
1026.67 1026.59 1026.55 1026.43 1026.39 1026.31 1026.27 1026.27 1026.15 1026.11 1026.11 1025.99 1025.95 1025.87 1025.83 1025.75 1025.71 1025.67 1025.55 1025.51 1025.51 1025.39 1025.31 1025.23 1025.19 1025.15 1025.11 1024.99 1024.91 1024.83 1024.71 1024.67 1024.55 1024.47 1024.39 1024.27 1024.19 1024.11 1023.99 1023.87 1023.83 1023.71 1023.67 1023.63 1023.59 1023.55 1023.55 1023.51 1023.51 1023.47 1023.43 1023.39 1023.47 1023.51 1023.55 1023.55 1023.63 1023.67 1023.63 1023.55 1023.47 1023.39 1023.35 1023.27 1023.23 1023.19 1023.19 1023.11 1023.03
1026.67 1026.63 1026.55 1026.47 1026.43 1026.39 1026.31 1026.31 1026.23 1026.15 1026.11 1025.99 1025.95 1025.87 1025.79 1025.71 1025.67 1025.63 1025.59 1025.55 1025.51 1025.39 1025.27 1025.19 1025.15 1025.15 1025.11 1025.03 1024.91 1024.83 1024.71 1024.63 1024.55 1024.51 1024.39 1024.27 1024.15 1024.03 1023.95 1023.83 1023.79 1023.71 1023.67 1023.63 1023.59 1023.59 1023.55 1023.55 1023.51 1023.51 1023.47 1023.43 1023.47 1023.51 1023.51 1023.55 1023.55 1023.59 1023.55 1023.51 1023.47 1023.43 1023.35 1023.27 1023.23 1023.23 1023.19 1023.15 1023.11
1026.67 1026.67 1026.59 1026.51 1026.47 1026.43 1026.39 1026.39 1026.27 1026.19 1026.11 1026.03 1025.95 1025.87 1025.79 1025.71 1025.63 1025.63 1025.59 1025.55 1025.47 1025.39 1025.27 1025.15 1025.11 1025.11 1025.07 1024.99 1024.91 1024.83 1024.71 1024.63 1024.55 1024.47 1024.39 1024.27 1024.15 1024.07 1023.99 1023.87 1023.79 1023.75 1023.67 1023.63 1023.55 1023.55 1023.55 1023.55 1023.51 1023.51 1023.51 1023.51 1023.51 1023.47 1023.43 1023.43 1023.47 1023.47 1023.47 1023.43 1023.39 1023.39 1023.35 1023.27 1023.27 1023.23 1023.19 1023.15 1023.11
1026.71 1026.67 1026.63 1026.55 1026.55 1026.51 1026.47 1026.39 1026.27 1026.19 1026.11 1026.03 1025.95 1025.83 1025.75 1025.67 1025.59 1025.59 1025.59 1025.55 1025.43 1025.35 1025.27 1025.15 1025.11 1025.07 1024.99 1024.99 1024.87 1024.83 1024.75 1024.63 1024.55 1024.47 1024.39 1024.27 1024.15 1024.11 1023.99 1023.87 1023.83 1023.75 1023.67 1023.63 1023.55 1023.55 1023.55 1023.51 1023.51 1023.51 1023.51 1023.51 1023.51 1023.43 1023.39 1023.35 1023.39 1023.39 1023.39 1023.35 1023.35 1023.31 1023.27 1023.27 1023.23 1023.23 1023.23 1023.23 1023.19
1026.71 1026.67 1026.63 1026.63 1026.59 1026.55 1026.47 1026.39 1026.27 1026.19 1026.11 1026.03 1025.91 1025.83 1025.75 1025.67 1025.59 1025.55 1025.55 1025.51 1025.39 1025.35 1025.27 1025.23 1025.11 1025.03 1024.95 1024.87 1024.83 1024.75 1024.67 1024.59 1024.55 1024.43 1024.35 1024.27 1024.19 1024.11 1023.99 1023.91 1023.83 1023.75 1023.67 1023.59 1023.55 1023.51 1023.51 1023.51 1023.47 1023.47 1023.51 1023.51 1023.43 1023.39 1023.35 1023.31 1023.27 1023.27 1023.27 1023.23 1023.27 1023.27 1023.23 1023.19 1023.19 1023.23 1023.27 1023.27 1023.27
1026.75 1026.67 1026.67 1026.63 1026.59 1026.51 1026.43 1026.39 1026.27 1026.19 1026.11 1026.03 1025.91 1025.83 1025.75 1025.67 1025.59 1025.55 1025.55 1025.51 1025.43 1025.35 1025.27 1025.23 1025.11 1024.99 1024.91 1024.83 1024.75 1024.67 1024.63 1024.55 1024.51 1024.43 1024.35 1024.27 1024.23 1024.11 1024.03 1023.95 1023.83 1023.79 1023.67 1023.63 1023.55 1023.51 1023.51 1023.51 1023.47 1023.47 1023.43 1023.39 1023.39 1023.31 1023.27 1023.27 1023.23 1023.23 1023.23 1023.19 1023.19 1023.15 1023.15 1023.11 1023.15 1023.19 1023.19 1023.23 1023.27
1026.75 1026.67 1026.67 1026.63 1026.55 1026.51 1026.39 1026.35 1026.27 1026.19 1026.11 1026.03 1025.91 1025.83 1025.75 1025.67 1025.59 1025.55 1025.51 1025.47 1025.39 1025.35 1025.27 1025.15 1025.11 1025.03 1024.95 1024.83 1024.75 1024.67 1024.63 1024.55 1024.51 1024.43 1024.39 1024.27 1024.23 1024.11 1024.07 1023.99 1023.87 1023.79 1023.71 1023.67 1023.63 1023.55 1023.55 1023.51 1023.51 1023.47 1023.43 1023.39 1023.35 1023.27 1023.23 1023.19 1023.23 1023.23 1023.23 1023.19 1023.15 1023.11 1023.11 1023.11 1023.11 1023.15 1023.15 1023.15 1023.11
1026.75 1026.71 1026.67 1026.59 1026.55 1026.47 1026.39 1026.35 1026.27 1026.23 1026.11 1026.03 1025.91 1025.83 1025.75 1025.67 1025.63 1025.55 1025.47 1025.39 1025.39 1025.35 1025.27 1025.15 1025.07 1025.03 1024.95 1024.87 1024.83 1024.71 1024.67 1024.59 1024.55 1024.47 1024.39 1024.27 1024.19 1024.11 1024.03 1023.99 1023.87 1023.83 1023.75 1023.71 1023.71 1023.67 1023.59 1023.55 1023.51 1023.47 1023.43 1023.39 1023.35 1023.27 1023.23 1023.23 1023.19 1023.19 1023.15 1023.15 1023.15 1023.11 1023.11 1023.07 1023.11 1023.11 1023.11 1023.07 1022.99
1026.71 1026.67 1026.63 1026.55 1026.51 1026.43 1026.39 1026.35 1026.27 1026.19 1026.11 1026.03 1025.91 1025.83 1025.75 1025.67 1025.59 1025.55 1025.43 1025.31 1025.27 1025.27 1025.27 1025.19 1025.07 1024.99 1024.95 1024.87 1024.83 1024.71 1024.67 1024.63 1024.55 1024.43 1024.31 1024.27 1024.15 1024.11 1023.99 1023.99 1023.87 1023.83 1023.79 1023.75 1023.71 1023.67 1023.63 1023.55 1023.51 1023.47 1023.43 1023.39 1023.35 1023.31 1023.27 1023.27 1023.23 1023.19 1023.19 1023.15 1023.15 1023.11 1023.07 1023.07 1023.03 1023.03 1023.03 1022.99 1022.95
1026.67 1026.63 1026.55 1026.51 1026.43 1026.39 1026.39 1026.27 1026.23 1026.15 1026.07 1025.99 1025.91 1025.83 1025.75 1025.67 1025.55 1025.51 1025.43 1025.31 1025.23 1025.19 1025.19 1025.15 1025.11 1024.99 1024.95 1024.87 1024.79 1024.67 1024.63 1024.55 1024.51 1024.39 1024.31 1024.23 1024.15 1024.11 1024.03 1023.99 1023.95 1023.87 1023.83 1023.75 1023.71 1023.67 1023.63 1023.59 1023.55 1023.51 1023.47 1023.43 1023.39 1023.35 1023.31 1023.27 1023.27 1023.19 1023.15 1023.15 1023.15 1023.11 1023.03 1022.99 1022.99 1022.99 1022.99 1022.99 1022.95
1026.63 1026.55 1026.51 1026.43 1026.39 1026.39 1026.31 1026.23 1026.15 1026.11 1026.03 1025.99 1025.87 1025.83 1025.75 1025.67 1025.55 1025.47 1025.39 1025.27 1025.19 1025.15 1025.11 1025.11 1025.07 1025.03 1024.99 1024.87 1024.83 1024.71 1024.59 1024.51 1024.43 1024.39 1024.31 1024.23 1024.19 1024.11 1024.07 1024.03 1023.99 1023.87 1023.83 1023.79 1023.71 1023.67 1023.67 1023.59 1023.55 1023.55 1023.51 1023.47 1023.43 1023.39 1023.39 1023.35 1023.27 1023.23 1023.19 1023.15 1023.07 1022.99 1022.95 1022.91 1022.91 1022.91 1022.95 1022.95 1022.95
1026.51 1026.43 1026.39 1026.39 1026.35 1026.27 1026.23 1026.15 1026.11 1026.07 1025.99 1025.95 1025.83 1025.79 1025.71 1025.63 1025.55 1025.43 1025.35 1025.23 1025.15 1025.11 1025.11 1025.07 1024.99 1024.99 1024.91 1024.87 1024.83 1024.71 1024.59 1024.43 1024.39 1024.35 1024.27 1024.23 1024.19 1024.11 1024.11 1024.07 1023.99 1023.95 1023.87 1023.83 1023.75 1023.71 1023.63 1023.55 1023.55 1023.55 1023.51 1023.47 1023.47 1023.39 1023.39 1023.35 1023.27 1023.27 1023.19 1023.11 1022.99 1022.95 1022.91 1022.87 1022.87 1022.83 1022.83 1022.83 1022.79
1026.39 1026.39 1026.35 1026.31 1026.27 1026.23 1026.11 1026.11 1026.03 1025.99 1025.99 1025.87 1025.83 1025.75 1025.67 1025.55 1025.47 1025.39 1025.31 1025.23 1025.15 1025.11 1025.03 1024.99 1024.95 1024.91 1024.83 1024.83 1024.79 1024.71 1024.63 1024.51 1024.39 1024.27 1024.23 1024.19 1024.15 1024.11 1024.07 1024.03 1023.99 1023.99 1023.91 1023.83 1023.79 1023.71 1023.67 1023.59 1023.51 1023.47 1023.47 1023.47 1023.47 1023.39 1023.35 1023.27 1023.27 1023.27 1023.19 1023.11 1023.03 1022.95 1022.91 1022.87 1022.83 1022.75 1022.71 1022.67 1022.55
1026.35 1026.31 1026.27 1026.27 1026.23 1026.15 1026.11 1026.03 1025.99 1025.99 1025.95 1025.87 1025.79 1025.71 1025.63 1025.55 1025.43 1025.39 1025.27 1025.19 1025.11 1025.07 1024.99 1024.95 1024.91 1024.83 1024.83 1024.75 1024.75 1024.71 1024.67 1024.55 1024.47 1024.35 1024.27 1024.19 1024.15 1024.11 1024.07 1024.03 1023.99 1023.95 1023.87 1023.83 1023.71 1023.67 1023.63 1023.55 1023.47 1023.39 1023.39 1023.39 1023.39 1023.35 1023.31 1023.27 1023.27 1023.27 1023.23 1023.15 1023.07 1022.99 1022.95 1022.83 1022.75 1022.67 1022.63 1022.55 1022.39
1026.27 1026.27 1026.27 1026.23 1026.15 1026.11 1026.07 1026.03 1026.03 1025.99 1025.91 1025.83 1025.75 1025.67 1025.59 1025.51 1025.43 1025.39 1025.31 1025.23 1025.11 1025.03 1024.99 1024.91 1024.87 1024.83 1024.79 1024.71 1024.67 1024.67 1024.59 1024.55 1024.51 1024.47 1024.39 1024.27 1024.11 1024.11 1024.07 1023.99 1023.95 1023.87 1023.83 1023.67 1023.51 1023.35 1023.27 1023.27 1023.27 1023.27 1023.27 1023.27 1023.27 1023.27 1023.27 1023.23 1023.19 1023.19 1023.19 1023.15 1023.11 1023.11 1022.99 1022.83 1022.71 1022.63 1022.55 1022.47 1022.39
1026.27 1026.27 1026.23 1026.15 1026.11 1026.11 1026.07 1026.03 1025.99 1025.99 1025.87 1025.79 1025.71 1025.67 1025.55 1025.47 1025.43 1025.39 1025.35 1025.27 1025.11 1025.03 1024.99 1024.91 1024.87 1024.83 1024.75 1024.67 1024.67 1024.59 1024.55 1024.47 1024.47 1024.47 1024.43 1024.35 1024.23 1024.11 1024.03 1023.99 1023.87 1023.83 1023.67 1023.55 1023.39 1023.27 1023.11 1023.07 1022.99 1023.03 1023.11 1023.15 1023.19 1023.15 1023.11 1023.11 1023.11 1023.11 1023.11 1023.11 1023.11 1023.11 1023.03 1022.91 1022.75 1022.63 1022.55 1022.43 1022.35
1026.27 1026.23 1026.19 1026.11 1026.07 1026.07 1026.03 1025.99 1025.99 1025.91 1025.87 1025.79 1025.71 1025.63 1025.55 1025.47 1025.43 1025.39 1025.35 1025.27 1025.15 1025.07 1024.99 1024.87 1024.83 1024.79 1024.71 1024.67 1024.67 1024.63 1024.55 1024.47 1024.43 1024.39 1024.39 1024.35 1024.31 1024.19 1024.07 1023.95 1023.83 1023.71 1023.59 1023.43 1023.27 1023.19 1023.11 1022.99 1022.91 1022.87 1022.95 1023.07 1023.11 1023.11 1023.07 1023.03 1022.99 1023.03 1023.07 1023.07 1023.07 1023.07 1023.03 1022.95 1022.83 1022.67 1022.55 1022.39 1022.27
1026.27 1026.19 1026.11 1026.11 1026.07 1026.03 1025.99 1025.95 1025.95 1025.87 1025.83 1025.71 1025.67 1025.63 1025.55 1025.47 1025.43 1025.39 1025.31 1025.23 1025.15 1025.07 1024.99 1024.87 1024.79 1024.71 1024.67 1024.67 1024.67 1024.63 1024.55 1024.47 1024.43 1024.39 1024.35 1024.31 1024.27 1024.19 1024.07 1023.91 1023.79 1023.67 1023.55 1023.35 1023.23 1023.11 1023.03 1022.95 1022.87 1022.83 1022.83 1022.87 1022.95 1022.99 1023.03 1023.03 1022.99 1022.99 1023.03 1023.03 1023.03 1022.99 1022.95 1022.83 1022.79 1022.67 1022.51 1022.31 1022.15
1026.19 1026.15 1026.11 1026.11 1026.11 1026.03 1025.99 1025.95 1025.91 1025.83 1025.75 1025.67 1025.67 1025.59 1025.55 1025.47 1025.43 1025.39 1025.27 1025.23 1025.11 1025.07 1024.99 1024.87 1024.75 1024.67 1024.67 1024.67 1024.63 1024.55 1024.55 1024.47 1024.39 1024.35 1024.31 1024.27 1024.27 1024.15 1024.03 1023.87 1023.71 1023.55 1023.43 1023.27 1023.15 1023.07 1022.99 1022.91 1022.83 1022.79 1022.75 1022.71 1022.87 1022.99 1022.99 1022.99 1022.99 1022.99 1022.99 1022.99 1022.95 1022.87 1022.83 1022.71 1022.63 1022.51 1022.39 1022.27 1022.11
1026.11 1026.11 1026.11 1026.11 1026.11 1026.03 1025.99 1025.91 1025.83 1025.79 1025.71 1025.67 1025.63 1025.55 1025.55 1025.47 1025.43 1025.39 1025.27 1025.23 1025.11 1025.03 1024.91 1024.83 1024.75 1024.71 1024.67 1024.63 1024.55 1024.51 1024.43 1024.39 1024.35 1024.35 1024.35 1024.27 1024.19 1024.11 1023.95 1023.79 1023.67 1023.55 1023.39 1023.27 1023.11 1023.03 1022.95 1022.87 1022.83 1022.79 1022.75 1022.71 1022.83 1022.91 1022.99 1022.99 1022.99 1022.99 1022.99 1022.91 1022.87 1022.83 1022.71 1022.63 1022.55 1022.43 1022.31 1022.19 1022.07
1026.11 1026.11 1026.11 1026.11 1026.11 1026.03 1025.95 1025.83 1025.79 1025.75 1025.71 1025.67 1025.59 1025.55 1025.51 1025.43 1025.39 1025.31 1025.23 1025.15 1025.03 1024.91 1024.79 1024.75 1024.75 1024.67 1024.59 1024.51 1024.43 1024.39 1024.35 1024.27 1024.27 1024.27 1024.27 1024.27 1024.15 1024.03 1023.91 1023.79 1023.67 1023.55 1023.39 1023.23 1023.11 1022.99 1022.91 1022.83 1022.83 1022.79 1022.75 1022.79 1022.87 1022.95 1022.99 1023.03 1023.03 1023.03 1022.99 1022.91 1022.83 1022.79 1022.67 1022.59 1022.51 1022.39 1022.27 1022.15 1022.03
1026.11 1026.11 1026.11 1026.11 1026.11 1025.99 1025.87 1025.79 1025.75 1025.71 1025.67 1025.63 1025.55 1025.55 1025.47 1025.39 1025.35 1025.23 1025.11 1025.03 1024.95 1024.83 1024.79 1024.71 1024.67 1024.63 1024.55 1024.39 1024.31 1024.27 1024.19 1024.15 1024.11 1024.11 1024.11 1024.11 1024.11 1024.07 1023.99 1023.83 1023.71 1023.55 1023.39 1023.19 1023.03 1022.95 1022.87 1022.83 1022.83 1022.83 1022.83 1022.83 1022.95 1023.03 1023.11 1023.11 1023.11 1023.11 1023.03 1022.95 1022.87 1022.79 1022.67 1022.55 1022.43 1022.35 1022.19 1022.07 1021.95
1026.11 1026.11 1026.11 1026.11 1026.03 1025.95 1025.83 1025.79 1025.75 1025.71 1025.67 1025.63 1025.55 1025.51 1025.43 1025.39 1025.27 1025.19 1025.07 1024.99 1024.91 1024.83 1024.75 1024.67 1024.67 1024.63 1024.55 1024.39 1024.27 1024.15 1024.03 1023.99 1023.95 1023.99 1023.99 1024.03 1024.07 1024.07 1023.99 1023.87 1023.75 1023.55 1023.39 1023.15 1022.99 1022.91 1022.83 1022.83 1022.83 1022.83 1022.87 1022.95 1023.03 1023.19 1023.23 1023.19 1023.15 1023.11 1023.07 1022.99 1022.83 1022.75 1022.67 1022.55 1022.43 1022.27 1022.11 1021.99 1021.83
1026.11 1026.11 1026.11 1026.03 1025.99 1025.91 1025.83 1025.75 1025.75 1025.71 1025.67 1025.59 1025.55 1025.47 1025.39 1025.35 1025.27 1025.15 1024.99 1024.91 1024.83 1024.75 1024.67 1024.59 1024.55 1024.51 1024.39 1024.31 1024.23 1024.11 1023.99 1023.91 1023.87 1023.87 1023.91 1023.99 1023.99 1024.03 1023.99 1023.91 1023.75 1023.55 1023.35 1023.15 1022.99 1022.87 1022.83 1022.83 1022.83 1022.83 1022.91 1022.99 1023.11 1023.23 1023.27 1023.23 1023.19 1023.11 1023.07 1022.95 1022.83 1022.67 1022.55 1022.47 1022.35 1022.23 1022.07 1021.95 1021.83
1026.07 1026.07 1026.07 1025.99 1025.95 1025.87 1025.83 1025.79 1025.79 1025.71 1025.67 1025.59 1025.51 1025.43 1025.35 1025.31 1025.23 1025.11 1024.95 1024.83 1024.75 1024.67 1024.59 1024.51 1024.43 1024.35 1024.27 1024.23 1024.11 1024.07 1023.99 1023.95 1023.87 1023.83 1023.83 1023.87 1023.91 1023.99 1023.99 1023.87 1023.71 1023.55 1023.35 1023.15 1022.99 1022.87 1022.83 1022.83 1022.83 1022.87 1022.95 1023.07 1023.19 1023.27 1023.27 1023.23 1023.19 1023.11 1023.03 1022.95 1022.83 1022.67 1022.51 1022.39 1022.27 1022.11 1021.99 1021.87 1021.75
1026.03 1026.03 1026.03 1025.99 1025.91 1025.87 1025.83 1025.83 1025.79 1025.71 1025.67 1025.59 1025.55 1025.43 1025.31 1025.23 1025.11 1024.99 1024.83 1024.79 1024.75 1024.67 1024.59 1024.47 1024.39 1024.31 1024.23 1024.15 1024.07 1023.99 1023.99 1023.95 1023.87 1023.83 1023.79 1023.83 1023.83 1023.91 1023.95 1023.91 1023.75 1023.55 1023.39 1023.23 1023.07 1022.91 1022.83 1022.83 1022.87 1022.95 1022.99 1023.11 1023.23 1023.27 1023.27 1023.27 1023.19 1023.11 1023.03 1022.91 1022.75 1022.59 1022.43 1022.31 1022.15 1021.99 1021.87 1021.75 1021.63
1025.99 1025.99 1025.99 1025.99 1025.95 1025.87 1025.83 1025.83 1025.79 1025.71 1025.63 1025.55 1025.51 1025.39 1025.27 1025.11 1025.03 1024.87 1024.79 1024.71 1024.71 1024.67 1024.55 1024.43 1024.35 1024.27 1024.15 1024.11 1024.03 1023.99 1023.91 1023.87 1023.87 1023.83 1023.79 1023.75 1023.79 1023.87 1023.99 1023.95 1023.83 1023.67 1023.51 1023.27 1023.11 1022.99 1022.83 1022.79 1022.87 1022.99 1023.07 1023.15 1023.23 1023.27 1023.27 1023.23 1023.15 1023.07 1022.99 1022.87 1022.67 1022.55 1022.39 1022.27 1022.11 1021.95 1021.83 1021.67 1021.51
1025.91 1025.95 1025.99 1025.99 1025.91 1025.87 1025.83 1025.79 1025.71 1025.67 1025.63 1025.55 1025.39 1025.31 1025.19 1025.07 1024.99 1024.83 1024.71 1024.67 1024.67 1024.67 1024.55 1024.39 1024.31 1024.19 1024.07 1024.03 1023.99 1023.95 1023.83 1023.79 1023.83 1023.83 1023.83 1023.79 1023.83 1023.87 1023.95 1023.99 1023.87 1023.79 1023.63 1023.39 1023.15 1022.99 1022.83 1022.79 1022.83 1022.91 1023.03 1023.15 1023.23 1023.23 1023.23 1023.19 1023.11 1022.99 1022.87 1022.79 1022.63 1022.47 1022.31 1022.15 1021.99 1021.87 1021.71 1021.55 1021.35
1025.87 1025.87 1025.91 1025.87 1025.83 1025.83 1025.75 1025.71 1025.67 1025.63 1025.55 1025.43 1025.35 1025.23 1025.11 1025.03 1024.91 1024.75 1024.67 1024.59 1024.63 1024.63 1024.55 1024.39 1024.27 1024.11 1023.99 1023.99 1023.99 1023.91 1023.79 1023.75 1023.83 1023.87 1023.83 1023.83 1023.83 1023.83 1023.91 1023.99 1023.95 1023.83 1023.67 1023.43 1023.19 1023.03 1022.91 1022.83 1022.79 1022.83 1022.95 1023.15 1023.19 1023.19 1023.15 1023.11 1023.03 1022.95 1022.83 1022.67 1022.55 1022.39 1022.23 1022.03 1021.87 1021.75 1021.59 1021.43 1021.11
1025.83 1025.83 1025.83 1025.83 1025.79 1025.75 1025.71 1025.67 1025.63 1025.55 1025.43 1025.35 1025.31 1025.23 1025.11 1024.99 1024.83 1024.67 1024.59 1024.55 1024.55 1024.51 1024.43 1024.35 1024.19 1024.07 1023.99 1024.03 1024.03 1023.95 1023.83 1023.79 1023.91 1023.95 1023.87 1023.83 1023.79 1023.79 1023.83 1023.99 1023.95 1023.83 1023.67 1023.47 1023.27 1023.07 1022.99 1022.91 1022.83 1022.75 1022.83 1023.19 1023.15 1023.11 1023.11 1023.03 1022.99 1022.87 1022.75 1022.59 1022.39 1022.23 1022.03 1021.83 1021.71 1021.59 1021.47 1021.27 1021.03
1025.79 1025.79 1025.75 1025.75 1025.71 1025.67 1025.67 1025.63 1025.55 1025.43 1025.35 1025.27 1025.27 1025.15 1025.03 1024.91 1024.83 1024.67 1024.59 1024.55 1024.47 1024.39 1024.35 1024.27 1024.15 1024.11 1024.07 1024.07 1024.07 1023.99 1023.95 1023.91 1023.91 1023.91 1023.87 1023.83 1023.87 1023.87 1023.87 1023.99 1023.95 1023.83 1023.67 1023.55 1023.31 1023.11 1023.03 1022.99 1022.87 1022.79 1022.79 1022.95 1022.99 1022.99 1022.99 1022.91 1022.83 1022.75 1022.59 1022.43 1022.27 1022.07 1021.87 1021.71 1021.55 1021.43 1021.31 1021.11 1020.95
Wind_Speed
5 5 4 4 4 3 3 3 3 3 3 3 3 3 3 3 2 2 2 2 1 1 1 1 1 1 1 1 1 1 2 2 2 2 2 2 2 1 1 1 1 1 1 1 1 1 1 1 1 1 0 0 1 1 1 1 1 1 1 1 1 0 0 0 0 0 0 1 1
5 5 5 4 4 4 3 3 3 3 3 3 2 2 2 2 2 1 1 2 2 2 1 1 1 2 2 2 2 2 2 2 2 2 2 2 2 2 1 1 1 1 1 1 1 1 0 0 0 0 1 1 1 1 1 1 0 0 0 0 0 1 1 0 1 0 0 0 0
5 5 5 5 5 4 4 3 3 3 3 3 2 2 2 2 1 1 1 2 2 2 2 2 2 2 3 3 3 3 2 2 2 2 2 2 2 3 2 2 3 3 2 2 2 2 1 1 1 1 1 1 1 1 1 1 1 0 1 1 1 1 1 1 1 1 1 1 1
4 4 5 5 5 5 4 3 3 3 3 2 2 2 2 2 1 1 2 2 2 2 2 2 3 3 3 3 3 3 3 3 3 3 3 3 3 3 3 3 3 3 3 3 3 3 3 2 2 1 1 2 2 2 2 1 1 1 1 1 1 1 1 1 1 1 1 1 1
4 4 4 4 4 4 3 2 2 2 2 2 2 3 3 2 2 2 2 2 2 2 3 3 3 3 3 3 3 3 3 3 3 3 3 3 4 4 4 4 3 3 3 3 3 3 3 3 2 2 2 2 2 2 2 2 1 1 1 1 1 1 1 1 1 2 2 1 1
3 3 3 3 3 2 2 2 1 1 1 2 2 3 3 3 2 2 2 2 2 3 3 3 3 3 3 3 3 3 3 3 3 3 3 3 4 4 4 4 4 3 3 3 3 3 3 3 2 2 2 1 2 2 2 2 2 1 1 1 1 1 1 1 2 2 2 2 2
3 2 2 2 2 2 1 1 1 1 1 1 2 3 3 3 3 3 3 3 3 3 3 3 3 3 3 3 3 3 3 3 4 4 4 4 4 4 5 5 5 4 4 3 3 3 3 3 2 2 2 1 1 2 2 2 2 2 2 2 2 1 1 1 1 1 2 2 3
2 2 1 1 1 1 1 1 1 2 2 2 2 3 3 3 3 3 3 3 3 2 2 2 3 3 3 3 3 3 4 4 4 4 4 4 5 5 5 5 5 5 5 4 4 4 3 3 2 2 2 2 1 1 1 2 2 2 2 2 2 2 1 1 1 1 1 2 2
2 2 1 1 1 1 1 2 2 2 2 2 3 3 3 3 3 3 3 3 3 2 2 2 3 3 3 3 3 4 4 4 4 5 5 5 5 5 6 5 5 5 5 4 4 4 4 3 2 2 2 2 2 1 0 1 1 1 2 2 2 2 2 2 1 1 1 2 2
1 2 2 2 2 2 2 2 2 2 2 3 3 3 3 3 3 3 3 3 2 2 2 2 3 3 3 4 4 4 4 4 4 5 5 5 5 6 6 5 5 5 5 4 3 3 3 3 3 3 3 2 1 1 0 0 0 1 2 2 2 3 3 3 2 2 2 2 2
1 2 2 2 2 2 2 2 2 2 3 3 4 3 3 3 3 3 3 2 2 3 3 3 3 3 4 4 5 5 5 5 5 5 5 5 6 6 6 6 6 6 5 4 3 2 2 3 3 4 3 2 1 1 1 1 1 2 2 2 2 3 3 3 2 2 1 2 2
2 2 2 2 2 2 2 3 3 3 3 4 4 4 3 3 3 3 3 2 3 3 4 3 3 3 4 4 5 5 6 5 5 5 5 6 6 6 6 6 6 6 5 5 3 2 2 3 4 4 4 2 1 1 2 2 2 2 3 3 3 2 3 3 3 2 1 2 3
2 2 2 2 3 3 3 3 3 3 4 4 4 4 4 4 3 3 2 3 3 4 4 3 3 3 4 5 5 5 6 6 6 6 6 6 6 6 6 6 6 6 6 5 3 3 2 3 4 4 4 3 1 2 2 3 3 3 4 3 3 2 3 3 3 2 2 2 3
2 2 2 3 3 3 3 3 4 4 4 5 5 5 4 5 4 3 2 3 4 4 4 4 4 4 4 5 5 5 6 6 6 6 6 6 6 6 6 6 6 6 6 5 4 3 3 3 3 3 3 3 2 3 3 4 4 4 4 4 3 3 3 3 2 2 2 3 3
2 2 2 2 3 3 3 4 4 4 5 5 5 5 5 5 4 3 2 3 4 4 4 4 4 4 5 5 5 5 5 5 5 5 6 6 6 6 6 6 6 6 6 5 4 3 2 3 3 2 3 3 3 3 4 4 4 4 4 4 4 3 3 3 2 2 2 3 3
2 2 2 2 3 3 4 4 4 4 5 5 6 5 5 5 4 3 3 3 3 3 4 4 5 5 5 5 5 5 4 4 4 5 5 5 6 6 6 6 6 6 5 5 5 4 3 2 2 2 2 3 4 4 4 4 4 4 4 4 3 3 3 3 3 3 3 3 3
2 2 2 2 3 4 5 5 4 5 5 6 6 6 5 4 4 3 3 3 3 3 4 5 5 5 5 5 4 4 4 4 4 4 4 5 5 5 6 6 5 5 5 5 5 5 4 3 2 2 2 3 4 4 5 4 4 4 4 4 4 4 4 4 4 4 4 4 5
2 2 3 3 4 4 5 6 5 5 6 6 6 5 5 4 4 3 3 3 2 3 4 5 5 4 4 5 4 4 3 3 4 4 4 4 4 5 5 5 5 4 4 4 4 5 5 4 3 3 3 3 4 4 4 4 4 4 4 4 4 5 5 5 5 5 5 5 6
2 2 2 3 4 4 5 5 5 5 5 5 5 5 5 4 4 3 3 3 3 3 3 4 5 4 4 4 5 4 3 3 4 4 4 4 4 4 4 5 5 4 4 4 4 4 5 5 5 4 4 4 4 4 3 3 3 4 4 4 5 5 6 6 5 5 5 6 6
2 2 2 3 3 4 4 5 5 5 5 5 5 5 5 4 4 3 3 4 3 3 3 3 4 4 4 4 5 5 4 3 3 4 4 4 4 4 4 4 4 4 4 4 4 4 5 5 5 5 4 4 4 4 4 4 4 4 4 4 5 6 6 6 5 5 5 5 5
2 2 2 2 3 3 4 4 4 4 5 5 5 5 5 4 4 4 4 4 3 3 2 2 3 3 4 4 5 5 5 3 3 3 3 3 3 3 3 3 4 4 4 4 4 4 4 4 4 4 4 4 4 4 4 4 4 5 5 5 5 6 6 5 4 4 4 4 5
2 3 3 3 3 3 3 4 4 4 4 4 4 4 4 4 4 4 4 3 3 2 2 2 3 3 3 4 4 5 4 4 3 3 3 2 3 3 2 2 3 3 4 4 4 4 4 4 4 4 3 3 4 5 5 5 5 6 6 6 7 6 5 4 3 4 4 5 5
3 3 3 3 3 3 3 4 4 4 4 4 4 4 5 5 5 4 4 3 3 3 3 3 3 3 3 3 4 4 4 4 4 3 3 2 2 2 2 2 2 2 3 3 3 3 3 4 4 4 3 3 4 5 5 6 6 6 7 7 7 6 5 4 3 4 5 5 6
3 3 3 3 3 3 3 3 4 4 4 4 4 5 5 5 5 5 4 4 4 4 3 3 3 3 3 3 3 3 3 3 4 4 4 3 3 2 2 2 2 2 3 3 3 3 3 3 4 4 4 3 4 5 5 5 6 6 6 7 7 7 6 6 5 5 5 6 6
3 3 3 3 3 3 3 3 4 4 4 5 5 5 5 5 4 4 4 4 5 4 4 4 3 3 3 3 3 2 2 2 3 3 4 4 4 3 3 2 2 3 3 4 5 6 6 5 4 4 3 3 4 4 5 5 5 6 6 6 6 6 7 7 7 7 6 6 6
2 3 3 3 3 3 3 3 4 4 5 5 5 5 5 4 4 4 4 5 5 5 5 4 3 3 2 2 3 3 2 2 2 2 3 4 4 4 3 3 3 3 3 5 6 7 8 8 7 5 3 3 3 4 5 5 5 5 5 5 5 5 6 7 7 7 7 7 6
2 3 3 3 3 4 4 4 4 4 4 4 5 5 4 4 3 3 4 5 5 5 4 4 3 3 2 2 3 3 3 3 3 2 3 3 4 4 3 3 3 3 4 6 7 7 8 8 8 7 4 2 3 3 4 5 5 5 4 4 4 5 5 6 7 7 7 7 7
2 3 3 3 4 4 4 4 4 4 5 5 5 4 4 4 4 4 4 5 5 4 4 3 3 2 2 2 3 3 4 4 3 3 3 3 3 4 4 3 3 4 5 7 7 7 7 7 7 7 5 2 2 2 3 4 4 4 4 3 4 4 5 5 6 6 7 7 7
3 3 3 3 4 5 5 4 4 5 5 4 4 4 4 4 5 5 4 4 4 4 4 3 3 2 2 3 3 4 4 4 3 3 2 3 3 4 4 4 4 5 6 7 7 7 6 5 5 5 5 4 1 1 1 2 2 2 3 3 3 4 4 5 5 6 6 6 6
3 2 3 4 5 5 5 5 5 5 4 4 4 4 4 5 5 5 4 4 4 4 3 3 2 3 3 3 3 4 4 4 3 3 2 3 4 4 4 4 4 4 6 7 7 7 6 5 4 4 5 5 2 0 1 1 1 2 2 3 3 4 5 5 6 6 6 6 6
3 3 3 4 5 6 6 5 5 4 4 4 4 4 4 4 5 4 4 4 4 4 3 2 3 3 4 3 3 3 4 4 4 3 3 4 5 5 5 4 4 5 6 8 7 6 5 4 3 4 4 5 3 1 0 0 1 1 2 3 3 4 5 5 5 6 7 7 7
3 3 3 4 5 6 6 5 4 4 4 4 4 4 4 4 4 4 4 4 4 4 3 3 3 4 4 4 3 3 4 4 4 4 4 3 4 4 5 6 6 6 7 8 7 6 5 3 3 3 4 5 3 2 1 0 1 1 2 3 4 5 5 5 5 6 7 7 7
3 3 4 5 6 6 5 5 4 4 4 4 4 4 4 4 4 5 4 4 3 3 3 3 3 4 4 4 4 4 4 5 5 4 4 3 3 3 5 6 6 6 7 8 7 6 4 2 3 3 4 4 3 2 1 1 1 1 2 3 4 5 6 6 6 7 7 8 7
4 4 4 5 6 6 5 4 3 3 4 4 4 4 4 4 5 5 5 4 3 3 3 3 3 3 4 4 4 4 4 5 4 4 3 2 2 3 4 5 5 6 7 8 7 5 4 2 3 3 4 4 3 2 1 1 2 2 3 4 5 5 6 6 7 7 8 8 7
4 4 5 5 5 5 4 4 3 3 4 4 5 5 5 4 5 5 5 4 3 3 3 3 3 3 3 4 3 3 3 4 4 4 3 1 1 2 4 5 5 6 7 8 7 6 4 3 2 3 3 3 2 1 1 2 2 3 4 5 6 7 7 7 7 7 7 7 7
4 4 5 5 5 4 4 3 3 3 4 5 5 5 5 5 5 4 4 3 3 3 3 3 3 3 3 4 3 3 3 3 4 4 3 1 1 1 3 5 5 6 7 8 8 8 6 4 2 2 3 2 1 1 1 2 2 3 4 5 6 7 8 8 7 7 7 7 7
4 4 4 5 5 4 4 3 3 4 4 5 5 5 5 5 5 4 4 3 3 3 4 4 4 4 4 4 4 4 3 3 4 4 3 2 1 1 3 4 5 6 7 9 9 9 8 6 3 2 2 2 1 1 1 2 2 3 4 5 6 7 7 7 7 7 7 7 7
4 3 3 4 4 4 4 3 3 4 4 5 4 4 4 4 4 4 3 2 3 3 4 4 5 5 5 4 4 5 5 4 3 3 3 2 1 1 2 4 5 6 7 9 10 10 9 8 5 3 2 1 0 1 1 2 3 3 4 5 6 6 6 6 5 6 6 7 9
3 3 3 3 4 4 4 3 4 4 4 4 4 4 4 4 3 4 3 3 3 3 4 5 6 6 5 4 5 5 5 4 2 1 1 2 1 1 1 3 4 5 6 9 9 9 9 9 9 6 3 2 1 0 1 2 3 4 4 5 5 5 5 5 5 5 6 7 11
3 2 2 3 3 3 3 4 4 4 4 4 4 4 4 4 4 4 4 3 3 3 4 5 6 6 5 4 5 6 5 4 2 1 1 1 2 2 1 2 3 4 6 8 9 9 9 10 10 10 6 1 1 1 1 1 3 4 5 5 5 5 5 5 5 5 5 7 9
3 2 2 3 3 3 3 4 4 4 4 4 4 4 4 3 3 3 3 3 3 4 4 5 6 6 5 4 4 4 5 4 3 2 2 2 2 2 2 1 2 4 5 7 9 10 10 10 11 12 10 3 0 1 1 1 3 5 5 6 5 5 5 5 5 5 5 6 6
Wind_Direction
46 47 48 49 52 53 52 46 38 34 34 35 31 27 25 25 22 13 356 339 337 332 335 353 348 325 318 326 1 31 47 54 60 64 68 70 71 70 67 61 61 63 65 61 52 51 52 53 62 65 58 276 276 281 286 289 316 0 25 38 34 33 98 102 105 100 80 61 11
47 48 49 49 51 53 53 47 39 33 30 28 25 21 19 20 10 351 328 315 308 302 303 318 322 319 321 328 342 357 10 15 20 23 25 24 18 9 359 352 346 348 352 353 346 341 341 328 231 214 227 241 251 263 274 280 290 26 53 26 275 261 251 241 247 254 279 22 336
48 48 48 48 48 49 50 46 39 31 25 16 10 7 7 4 347 322 304 299 302 307 316 328 329 329 329 328 334 343 352 355 358 0 0 355 352 348 344 338 335 334 333 330 323 317 310 302 286 266 257 256 259 264 269 275 268 184 169 207 238 249 258 264 269 286 312 337 337
47 49 50 51 50 51 51 49 40 30 19 7 356 352 350 345 326 306 301 305 317 325 331 335 331 327 325 324 327 332 337 341 343 345 345 341 340 338 335 331 330 328 326 323 317 313 309 306 299 287 279 275 271 267 263 265 256 222 206 212 226 247 269 288 301 317 331 335 333
44 47 51 54 54 53 53 52 41 23 6 353 351 346 342 336 329 321 319 325 328 328 327 326 320 315 313 314 320 324 328 330 331 334 335 333 330 328 326 324 320 316 313 311 309 307 305 305 299 289 279 276 274 271 273 282 284 272 257 253 260 281 303 318 326 331 334 332 329
43 43 43 47 48 47 43 42 33 0 337 341 348 342 334 328 330 329 324 317 314 313 313 312 307 306 307 312 316 320 321 321 322 325 326 324 320 318 317 314 309 303 297 293 294 295 295 294 285 274 269 270 278 289 302 321 325 322 319 320 320 327 334 334 330 332 336 335 329
48 44 41 36 35 29 16 354 334 319 318 333 341 330 319 312 314 311 305 299 302 304 304 302 303 305 308 312 315 315 315 314 315 317 317 315 312 309 307 303 300 294 288 280 279 279 278 273 267 263 260 261 274 298 321 342 345 342 335 324 318 324 332 320 318 326 332 328 320
37 35 31 19 14 359 334 314 311 315 320 325 320 308 298 293 295 295 296 299 297 292 289 291 296 298 302 308 309 309 309 310 312 312 311 310 308 305 301 298 295 290 283 273 267 264 263 263 258 254 251 244 248 274 320 354 354 344 326 308 305 305 303 292 294 299 300 300 305
15 0 341 327 313 297 286 283 291 302 310 310 300 290 283 279 281 286 289 288 280 278 279 283 287 293 298 303 301 299 299 302 304 304 305 305 304 303 302 300 296 291 284 274 262 256 254 254 252 248 243 234 228 235 291 9 353 325 300 289 292 293 289 277 271 269 270 278 295
356 332 320 315 303 293 287 286 285 288 294 298 294 288 281 275 272 271 270 267 274 282 284 279 286 294 300 301 297 294 291 291 292 294 295 297 298 298 299 298 297 295 291 283 271 258 251 247 247 247 246 235 216 200 175 68 288 275 273 273 280 285 286 279 269 266 271 283 296
308 299 297 298 295 296 298 301 297 295 297 301 299 297 292 284 275 268 266 270 287 289 285 277 283 291 295 296 295 293 290 288 288 288 289 290 290 291 293 294 296 297 297 295 286 270 254 246 245 248 251 247 204 168 163 182 222 244 254 260 267 275 281 283 281 283 290 300 308
280 284 287 289 295 304 310 311 307 306 307 308 308 307 303 295 284 278 279 290 292 288 284 282 285 287 289 291 293 294 294 293 291 290 290 289 289 291 293 295 299 302 305 306 300 284 262 248 245 248 252 254 207 169 177 195 214 231 243 252 257 265 275 284 291 302 316 326 321
277 286 293 300 307 314 317 313 309 310 312 313 313 312 310 303 293 288 286 290 287 287 289 291 291 291 290 290 292 295 296 296 295 295 294 292 293 295 297 300 304 309 312 313 309 296 273 255 248 249 253 259 233 199 194 198 209 221 232 242 248 255 265 276 290 307 326 332 319
284 293 301 307 314 317 317 313 311 312 315 317 316 315 312 307 300 292 284 282 284 287 292 298 301 300 297 295 294 294 294 295 297 298 298 298 299 301 304 306 309 312 315 316 313 302 283 263 254 252 254 261 249 228 212 205 210 215 220 226 233 242 253 265 279 299 314 312 300
298 300 302 309 314 315 315 315 314 316 318 318 315 314 312 308 301 293 284 281 283 288 296 306 309 308 306 304 302 299 298 298 301 303 305 306 307 308 309 310 313 315 318 319 318 309 289 265 257 254 255 259 255 246 234 223 220 220 220 220 222 230 242 253 261 268 273 272 275
302 302 304 310 313 315 317 318 318 319 319 316 314 313 311 307 302 297 291 288 291 298 308 314 315 315 315 313 312 311 310 309 310 312 314 314 314 314 314 314 315 317 320 323 323 319 307 276 256 249 252 258 260 256 250 242 238 235 233 229 227 228 234 241 244 245 243 242 247
297 297 300 306 315 319 321 321 321 319 317 313 312 311 308 305 304 303 300 296 304 313 318 318 319 320 321 320 321 322 322 320 319 319 319 317 316 315 315 315 316 319 324 328 328 326 321 310 289 268 261 265 266 263 258 252 248 246 245 243 239 237 236 237 236 235 235 234 236
287 290 297 310 319 321 322 320 319 315 313 310 310 308 306 305 307 305 304 303 313 320 320 318 318 320 321 320 321 322 324 321 317 315 314 315 315 316 317 318 320 324 330 336 334 329 325 320 315 307 295 285 277 271 265 258 254 252 252 253 251 248 244 242 238 234 232 233 238
279 290 303 316 319 319 318 316 314 312 310 308 308 307 306 305 303 305 309 312 316 318 317 314 316 317 318 317 317 317 317 313 309 308 309 313 317 321 324 324 326 330 335 340 336 330 326 322 321 319 313 303 294 286 277 267 261 259 260 260 259 257 253 248 242 237 234 235 241
274 289 301 307 311 311 311 310 309 308 307 308 308 307 306 302 300 303 308 307 306 306 307 308 311 313 313 314 316 315 312 305 304 305 308 315 322 326 327 326 327 329 333 337 335 330 326 323 321 318 313 306 298 291 285 277 272 268 265 263 261 257 254 250 245 241 239 240 247
267 274 281 288 295 299 300 301 303 305 306 307 306 304 301 298 298 297 295 292 294 295 297 296 299 302 305 308 310 309 307 302 300 300 303 312 318 320 321 322 325 328 330 333 331 327 322 318 314 311 307 301 291 285 280 276 273 270 266 263 258 255 252 250 247 245 244 246 251
258 261 266 275 281 285 290 295 300 304 306 306 304 300 298 297 294 291 287 285 287 288 287 283 282 284 287 291 294 298 299 302 298 295 296 306 309 311 314 321 328 329 327 325 321 318 315 311 306 302 297 293 285 279 274 270 268 267 266 264 262 261 260 259 253 250 249 248 248
253 257 263 268 274 282 289 297 304 308 309 307 303 300 298 295 293 292 292 291 290 287 282 277 273 272 272 272 275 284 294 305 305 303 300 302 305 308 313 323 330 323 313 304 301 301 303 302 300 295 289 283 279 276 272 267 265 265 267 269 272 276 280 281 272 263 256 250 246
252 259 264 269 277 286 295 305 311 313 311 305 301 298 295 293 294 297 299 299 295 292 289 285 279 274 271 269 267 271 283 300 307 308 308 307 307 308 310 315 311 296 286 281 283 283 283 280 284 283 280 275 272 271 270 268 265 266 269 274 282 289 296 299 292 280 269 260 255
256 264 271 276 285 294 303 312 312 308 302 297 294 293 291 290 293 298 301 302 299 298 297 297 292 286 283 281 277 272 270 277 291 298 303 305 305 306 305 303 291 280 276 277 287 293 296 289 283 272 264 265 269 272 273 272 268 267 270 275 284 292 298 301 299 293 285 276 271
263 272 277 281 292 302 306 306 301 296 293 291 291 291 290 288 291 296 299 299 298 299 301 302 299 297 295 297 299 298 291 277 273 278 286 294 299 302 300 293 284 279 280 285 297 304 308 306 303 292 266 249 260 270 276 277 274 272 272 274 279 284 290 295 296 296 294 292 287
271 277 280 288 300 302 299 293 291 290 290 291 292 290 289 290 294 297 296 294 295 298 300 302 298 295 295 301 308 307 302 293 283 273 272 278 286 290 289 285 279 278 283 292 302 307 311 313 315 313 303 249 248 258 268 276 279 279 278 276 275 276 279 282 285 288 292 294 293
270 275 284 298 300 297 293 292 293 292 290 290 289 290 292 296 298 297 295 293 297 301 304 303 295 293 298 310 307 302 297 292 287 279 272 270 272 272 272 274 275 278 285 293 302 307 311 315 319 324 325 309 257 248 256 267 275 279 279 275 272 270 269 269 272 276 280 285 287
264 275 287 296 293 292 292 294 291 289 288 288 289 293 297 300 298 297 297 298 303 305 304 299 298 305 314 311 305 302 298 291 284 281 280 280 274 267 263 262 269 277 285 293 299 304 308 313 322 330 338 349 334 242 240 252 264 271 273 271 267 265 263 264 267 271 274 277 280
265 274 282 284 285 287 288 286 284 285 286 289 293 297 299 301 300 299 298 298 296 292 287 286 296 303 302 298 302 304 303 294 286 281 278 279 277 273 268 266 269 276 284 290 295 298 302 309 323 339 353 6 15 38 215 229 247 262 270 272 270 267 267 269 272 275 277 280 281
271 272 274 277 280 281 281 279 282 286 292 296 297 299 300 301 298 295 291 287 285 282 281 284 293 293 291 290 295 298 298 296 291 281 271 267 273 276 278 278 278 280 283 287 291 293 298 308 330 354 11 22 31 40 52 234 248 260 268 275 276 277 277 279 279 279 279 280 282
275 272 271 273 275 275 277 280 286 293 298 301 300 300 299 296 290 287 284 282 283 287 292 296 297 297 297 297 296 297 296 294 290 280 270 261 270 280 285 287 283 281 282 285 289 292 298 313 346 13 27 34 39 42 38 355 273 270 274 278 281 281 282 284 284 283 282 281 280
276 272 269 269 270 273 277 284 292 299 304 304 303 302 300 296 293 292 291 288 286 286 288 288 289 290 290 289 290 291 292 290 286 281 274 265 272 285 291 290 285 281 282 287 291 297 307 331 10 32 41 45 47 45 34 8 311 296 293 293 289 287 285 285 286 287 287 285 283
277 272 269 266 269 273 280 290 299 307 310 309 307 305 304 302 301 301 298 293 287 281 276 271 267 265 264 263 268 277 284 289 288 284 278 270 280 291 292 288 284 283 286 292 300 308 322 352 27 44 51 54 52 43 25 1 338 323 314 308 303 299 296 293 292 291 291 290 289
276 274 272 270 273 277 286 297 306 311 313 312 311 309 307 304 301 297 294 289 286 283 278 270 262 259 259 258 258 266 279 292 292 287 278 265 291 297 293 287 284 287 293 303 313 322 333 1 35 54 60 61 52 38 17 359 339 324 316 310 308 305 303 301 299 296 294 293 291
275 273 274 275 279 285 292 301 307 311 312 311 310 308 306 303 297 292 288 286 289 288 284 280 278 277 277 277 276 275 278 285 288 285 279 261 290 297 292 289 287 295 306 320 327 332 337 356 35 63 68 64 48 27 7 351 329 317 311 309 306 304 303 302 300 298 296 294 290
275 272 273 277 282 287 292 297 303 306 306 304 302 300 300 298 294 291 289 290 295 293 289 285 286 286 286 288 293 292 287 281 281 282 282 281 284 291 292 292 291 302 316 331 335 337 341 352 23 66 80 60 31 4 346 333 319 312 309 306 302 300 298 297 295 294 293 291 290
282 276 271 272 278 281 286 290 294 295 295 293 291 289 290 291 292 291 289 288 291 290 288 288 287 286 287 293 299 298 294 285 280 281 287 300 311 292 287 290 293 303 319 334 340 344 347 353 8 42 89 95 37 336 327 322 315 310 307 304 300 297 295 292 290 290 289 288 294
290 278 263 260 265 271 277 282 283 283 284 285 286 287 289 290 289 289 288 283 279 280 282 284 286 287 291 302 307 304 301 297 300 299 302 313 313 290 274 278 288 302 319 335 344 349 353 355 356 6 38 123 156 240 296 313 312 309 306 304 302 299 296 291 288 288 288 287 298
290 272 252 249 255 261 268 272 274 274 276 281 287 289 289 287 285 287 290 287 281 278 279 282 286 290 297 309 309 305 303 315 359 20 352 333 321 320 308 269 284 300 318 335 347 353 357 357 350 352 0 124 169 201 264 309 314 313 311 309 307 305 303 299 293 290 289 287 296
284 266 252 250 253 256 261 267 271 275 279 285 287 286 283 283 284 289 295 299 295 292 290 291 293 298 304 313 310 305 308 326 357 8 359 350 339 342 341 286 294 307 321 335 349 355 357 355 349 348 349 350 19 192 261 316 320 318 316 313 311 311 311 308 302 297 293 291 292